Tracking 30995 objects as of 7-Jul-2025
HD Live streaming from Space Station
objects crossing your sky now

VOLGA R/B

Track VOLGA R/B now!
10-day predictions


NORAD ID: 44425
Int'l Code: 2019-039E
Perigee: 224.7 km
Apogee: 237.2 km
Inclination: 97.4 °
Period: 89.0 minutes
Semi major axis: 6601 km
RCS: Unknown
Launch date: July 10, 2019
Source: Commonwealth of Independent States (former USSR) (CIS)
Launch site: PLESETSK MISSILE AND SPACE COMPLEX (PKMTR)

Note: This is a ROCKET BODY
Your satellite tracking list
SL-8 R/B
Track 1 satellite(s)




NASA's NSSDC Master Catalog

Two Line Element Set (TLE):
1 44425U 19039E   25187.87854800  .00830013  24485-5  49408-3 0  9995
2 44425  97.4379 313.3655 0009396 234.7039 125.3371 16.18431736335431
Source of the keplerian elements: AFSPC